User: anonymous   Login
Location: Beang
(6.6177°N, 10.9863°W)
Time: 16:04:03
(UTC+00:00)
Language:

MOS 1-B - Orbit

View from above orbital plane
View from above orbital plane
View from above satellite
View from above satellite

Ground track
Ground track

The orbit data is extracted from the following two-line orbital elements,

1 20478U 90013A   20224.89196265 -.00000205 +00000-0 -11634-3 0  9997
2 20478 099.4224 222.0634 0004924 211.7604 148.3261 13.95508116474168
Epoch (UTC): 11 August 2020 21:24:25
Eccentricity: 0.0004924
inclination: 99.4224°
perigee height: 906 km
apogee height: 913 km
right ascension of ascending node: 222.0634°
argument of perigee: 211.7604°
revolutions per day: 13.95508116
mean anomaly at epoch: 148.3261°
orbit number at epoch: 47416

The dashed part of the orbit path shows where the satellite is in the earth's shadow,  

DLR